Vorticity
11 10 9 9 9 9 9 9 8 8 8 8 8 7 7 7 8 8 9 10 10 10 10 10 10 10 10 10 10 10 10 10 10 11 10 9 7 6 5 6 6 7 8 9 9 8 8 8 7 7 6 6 6 6 6 5 5 5 6 7 7 8 6 5 6 6 6 8 10 9 9 11 11 12 11 11 9 8 9 7 8 8 8 9 8 8 6 5
13 12 11 10 10 10 9 9 9 8 8 8 8 8 8 8 8 9 10 10 10 10 10 10 10 10 10 10 10 10 10 10 10 10 9 8 7 6 5 6 7 8 9 9 8 8 8 7 7 7 7 6 6 5 5 5 6 6 7 8 7 7 6 6 8 7 6 7 9 10 10 10 11 12 11 10 7 6 9 8 7 8 7 8 7 5 3 4
13 12 12 12 11 11 10 10 9 9 10 9 9 9 10 10 10 10 10 10 9 9 9 9 10 10 10 10 10 10 10 10 10 9 8 8 6 6 6 7 8 8 8 8 8 7 7 7 7 7 7 6 6 5 6 6 7 7 7 7 6 7 7 8 9 7 7 8 9 10 11 11 10 13 12 11 9 6 11 12 8 7 7 6 4 3 4 4
11 11 11 12 13 12 11 11 10 10 10 10 10 10 11 11 10 10 10 10 9 9 10 9 10 10 9 10 9 10 10 9 9 9 8 7 7 6 8 8 9 9 8 8 7 7 7 7 6 6 6 5 5 5 5 6 8 8 8 8 8 10 9 9 10 8 9 9 10 11 11 11 11 13 11 10 11 5 6 13 11 7 7 7 4 5 7 4
8 8 9 10 11 12 12 12 11 10 9 9 9 10 10 10 10 10 9 9 9 9 10 10 10 10 10 10 10 10 10 9 9 9 8 7 8 8 8 8 8 8 7 7 7 7 7 6 5 5 5 5 4 5 6 7 8 8 8 8 9 9 9 9 8 9 11 10 10 11 10 10 12 13 10 9 11 7 5 10 11 8 8 7 6 8 8 5
6 6 6 7 8 9 10 11 13 12 10 9 8 9 8 8 9 8 8 7 7 9 9 9 9 10 10 10 10 10 9 10 10 10 9 9 8 8 8 7 7 7 7 7 7 6 5 5 3 4 4 5 6 7 8 9 9 9 8 9 9 9 9 9 9 10 12 10 9 11 11 10 12 11 10 10 10 10 10 9 8 8 7 6 7 7 5 5
5 4 5 5 6 7 7 8 10 12 12 11 9 9 8 7 7 6 6 5 4 5 7 7 7 7 7 8 9 9 9 9 9 9 9 9 8 8 8 7 7 7 7 7 6 5 3 2 2 4 6 7 8 9 9 9 9 9 9 10 9 10 11 11 12 14 14 12 10 12 12 9 11 11 9 11 9 8 10 9 9 9 8 6 7 5 3 4
4 4 4 5 6 7 7 6 6 8 11 13 12 11 10 9 8 7 6 4 3 2 3 4 3 4 4 5 7 8 8 8 8 8 8 9 9 8 7 7 7 6 5 4 3 2 1 2 5 6 8 8 8 8 8 8 9 10 10 10 10 10 10 11 13 12 12 11 11 14 11 8 11 11 9 10 9 9 9 9 9 9 8 8 8 5 3 5
4 4 4 5 6 7 8 8 6 5 6 10 12 13 12 11 11 10 9 7 6 5 4 3 3 4 3 4 6 7 8 8 9 9 8 10 9 8 7 6 6 4 2 1 0 1 3 5 6 7 7 7 7 7 7 7 9 9 9 9 9 10 10 11 11 8 10 10 12 14 8 6 11 11 9 9 9 9 8 8 8 7 7 8 7 5 4 5
4 4 4 5 6 7 8 9 9 7 5 5 7 10 12 13 12 12 11 10 11 11 10 8 7 7 6 6 7 8 8 7 8 7 7 8 7 7 6 4 3 1 1 2 3 4 5 5 5 5 5 5 6 6 7 7 8 9 9 10 9 9 9 10 10 8 12 10 11 13 6 6 13 10 6 8 10 9 8 7 6 5 4 5 4 3 3 4
4 3 4 5 5 7 8 9 10 10 7 4 3 5 8 11 12 12 12 11 12 12 12 12 11 11 10 8 8 10 9 6 7 6 5 6 6 5 4 3 2 2 4 5 5 5 5 5 4 5 5 5 5 5 6 7 9 9 9 10 10 10 9 10 11 9 12 10 9 11 6 6 12 9 4 6 8 8 8 7 4 4 5 5 4 4 5 4
4 3 3 4 4 6 8 9 11 11 10 7 4 3 4 6 8 10 10 10 12 12 12 12 12 12 12 11 8 9 10 7 7 7 6 6 5 5 4 4 4 5 5 5 5 5 6 6 6 6 6 6 6 6 8 9 9 8 9 10 10 10 8 9 11 10 12 9 7 12 11 10 10 7 5 7 7 6 8 8 5 4 5 6 6 6 6 6
4 3 3 3 3 5 7 10 11 12 12 11 8 5 3 3 4 6 6 6 9 10 10 11 11 10 10 10 7 6 7 6 6 5 3 3 2 3 3 3 4 4 4 5 6 5 6 6 5 5 5 5 6 7 8 8 8 8 9 10 10 11 8 8 11 11 11 7 8 14 15 13 7 5 6 7 7 6 7 8 7 7 6 6 7 8 9 10
5 3 3 2 3 5 6 9 10 11 13 13 12 10 7 5 4 3 3 3 4 5 6 6 7 6 5 7 4 3 5 2 2 2 2 3 3 3 4 5 6 6 7 8 8 8 7 6 6 5 5 5 5 5 5 6 7 8 9 9 10 10 7 9 11 11 11 8 10 14 15 12 6 8 10 7 6 5 6 7 7 8 6 5 6 6 6 8
6 4 3 2 3 4 5 7 9 9 11 13 14 13 12 10 8 5 3 2 0 1 1 1 3 1 2 6 2 0 4 3 2 4 4 6 6 7 8 8 9 9 10 10 10 10 8 8 8 7 7 6 5 5 5 6 7 8 9 10 9 7 6 9 9 9 11 11 12 14 15 10 4 10 15 10 7 4 3 5 5 6 6 4 4 2 3 3
7 5 4 3 3 3 4 5 7 8 9 12 14 15 14 14 13 11 8 5 2 2 1 0 2 1 2 7 4 1 6 7 6 8 9 10 10 10 11 10 10 10 11 11 10 10 9 9 9 9 8 7 7 8 7 8 8 8 9 8 8 8 9 10 8 8 10 11 12 13 11 5 2 8 14 12 10 8 4 4 3 3 5 5 4 2 3 3
7 6 4 4 4 3 4 4 5 7 8 10 12 14 14 14 15 14 13 11 8 7 5 4 6 6 7 9 8 5 8 11 12 12 12 13 13 12 11 11 11 12 12 12 12 11 10 9 9 9 7 7 7 7 8 8 7 8 9 8 8 9 9 9 9 10 11 10 12 13 9 7 7 10 10 10 11 12 9 5 3 2 2 2 3 3 3 4
7 6 5 4 4 3 3 4 4 6 8 9 11 12 13 14 15 15 15 15 14 13 11 11 11 12 12 12 12 11 10 14 15 13 12 12 11 10 10 10 11 12 12 13 12 11 11 11 10 8 8 9 8 10 11 7 5 7 7 6 6 9 10 9 10 11 11 11 10 11 10 9 10 11 10 9 9 11 12 9 6 4 2 -1 -1 -1 -0 1
7 6 6 4 4 3 3 3 4 6 8 9 10 11 12 13 14 14 15 16 15 15 15 15 15 13 11 12 13 13 12 11 11 11 10 9 8 8 8 9 10 10 10 10 10 10 12 11 10 10 12 11 10 13 11 4 6 8 6 7 8 10 9 7 10 11 9 10 9 10 10 8 10 12 12 10 8 9 10 10 10 10 8 7 6 4 4 4
7 6 5 4 4 4 3 3 4 6 7 9 10 10 11 12 13 13 14 14 13 13 13 13 14 12 11 12 11 10 9 8 7 8 8 8 7 7 7 7 8 8 9 8 8 10 11 9 11 13 12 11 10 8 5 4 8 8 8 8 7 7 6 6 12 12 8 8 8 9 9 7 8 10 12 12 10 9 9 9 11 12 11 11 11 11 12 11
6 5 4 4 4 4 3 3 4 7 7 9 10 10 11 12 12 12 11 11 11 11 11 11 11 10 10 10 8 8 8 7 8 8 8 8 7 7 7 7 7 8 8 7 7 8 7 9 12 11 9 10 9 5 5 7 8 8 9 8 7 8 4 5 12 12 9 9 7 7 8 8 7 8 10 11 12 12 11 11 11 12 12 12 12 11 11 9
4 4 4 4 5 4 3 4 5 7 7 9 11 11 11 11 11 12 11 10 10 9 10 10 9 8 8 8 8 9 9 9 10 9 9 9 8 8 8 8 9 8 8 7 7 6 6 10 11 8 9 10 7 7 8 9 9 11 11 10 11 9 4 7 11 10 10 11 8 6 5 6 7 8 9 9 11 13 13 12 12 14 15 15 14 13 10 8
6 5 5 5 5 4 4 5 6 7 8 9 11 12 10 10 11 12 12 11 10 10 11 10 10 9 9 10 9 9 8 8 8 7 7 7 7 7 7 9 8 7 8 7 7 7 7 9 10 10 11 10 8 9 9 9 11 12 11 11 10 7 6 9 10 12 13 11 9 8 7 6 5 7 11 10 8 11 13 13 12 12 14 15 16 14 10 8
6 5 5 6 5 5 5 6 8 8 9 9 11 11 10 10 10 11 11 11 9 10 11 10 10 10 10 9 9 8 8 8 8 7 7 7 8 8 7 7 6 6 8 7 8 8 7 8 11 12 11 10 10 10 10 10 10 10 11 11 9 6 7 7 8 11 13 10 10 9 7 8 7 5 9 11 10 10 11 11 13 11 11 12 11 12 12 11
7 7 6 6 6 7 7 8 8 8 9 10 11 11 10 10 10 10 10 9 8 8 10 11 10 9 8 9 8 8 8 8 9 8 8 8 8 8 7 6 7 8 8 6 7 7 8 10 11 10 11 11 10 9 10 11 10 11 12 12 8 5 7 10 9 8 8 10 14 13 8 8 13 12 9 10 10 11 10 8 11 14 14 12 7 9 13 13
9 8 8 8 8 8 9 10 8 8 10 11 11 11 10 10 10 10 10 10 9 7 9 10 10 9 8 8 9 10 9 7 8 8 9 10 8 7 8 8 9 9 7 8 8 9 11 13 11 11 12 10 9 9 11 13 14 14 13 12 9 7 11 13 9 6 7 7 10 15 12 3 4 10 12 10 7 9 12 9 10 12 12 12 9 9 11 11
9 9 8 8 9 9 10 10 9 11 12 11 10 10 10 10 10 10 11 11 10 9 9 9 9 10 11 10 8 9 9 9 9 9 10 10 9 9 9 8 11 10 9 10 11 13 14 13 12 11 11 10 9 11 13 14 14 12 12 13 10 11 17 14 8 6 7 5 5 12 16 9 2 2 9 13 8 7 11 12 13 13 10 8 9 9 10 10
9 9 9 10 10 11 10 10 11 13 12 11 10 10 10 10 10 10 11 11 11 11 10 9 8 9 11 12 9 7 7 8 9 9 10 9 8 8 8 8 10 9 8 10 10 11 12 9 9 10 9 9 10 11 12 12 13 12 11 11 10 14 17 11 7 7 7 7 7 9 15 18 13 6 9 15 11 5 8 13 13 14 12 10 9 10 10 12
9 9 10 11 11 11 12 12 13 12 12 11 11 10 10 10 10 10 10 10 12 13 11 10 9 9 10 11 11 10 9 9 9 9 10 10 9 10 10 10 10 8 7 11 7 4 10 9 8 11 10 10 11 10 10 10 10 10 9 9 12 16 14 8 6 6 6 9 9 10 14 17 16 10 9 13 11 5 8 12 10 9 11 11 12 13 13 13
9 10 10 11 11 12 12 13 13 12 11 11 10 10 10 11 11 10 10 11 12 11 12 12 11 10 10 11 13 13 12 12 11 10 10 10 11 11 11 9 9 9 8 11 7 5 13 14 10 13 11 10 11 9 10 12 11 10 10 12 13 12 9 5 6 6 6 10 11 9 12 14 14 11 7 10 16 14 10 8 6 9 11 11 16 19 18 17
10 10 11 11 11 12 12 13 13 11 11 10 10 10 9 10 10 9 11 13 11 10 10 11 10 10 9 9 11 11 11 12 11 11 11 11 11 11 11 9 9 9 7 9 9 8 14 15 12 13 10 9 12 11 11 13 14 13 12 13 9 7 7 4 6 7 5 8 11 10 11 11 13 15 11 10 15 16 11 6 4 9 13 13 16 20 20 21
10 11 11 11 11 12 12 12 11 10 11 10 9 9 9 9 10 10 12 11 10 11 11 10 10 11 11 11 12 11 11 11 11 11 10 10 11 11 12 10 10 11 9 10 11 11 15 16 14 13 10 11 12 11 11 11 15 15 14 13 6 4 8 6 4 7 7 6 7 11 12 10 10 12 15 14 13 12 9 8 6 8 16 16 12 10 11 17
11 11 11 12 11 12 12 11 11 10 10 9 8 9 9 9 11 12 13 12 10 11 11 12 12 12 11 12 12 11 11 11 10 10 11 11 11 10 11 10 10 11 8 10 12 12 13 12 12 10 9 11 12 12 13 13 16 17 15 12 3 1 9 12 5 4 10 7 5 11 10 8 9 10 17 18 12 11 10 9 9 11 19 14 3 1 2 7
11 11 11 11 10 10 9 9 10 9 9 10 9 10 11 11 12 11 11 11 10 10 10 12 12 11 10 10 11 11 10 11 11 9 10 12 12 12 12 12 13 12 7 8 10 11 10 9 10 10 9 9 10 13 15 13 14 13 12 9 4 -0 3 11 11 8 13 11 9 16 12 7 10 13 22 18 7 9 9 9 10 13 21 14 1 3 4 2
11 10 9 9 9 10 10 9 10 10 11 11 11 11 11 11 11 10 10 10 10 10 10 10 10 9 9 9 11 11 9 9 12 11 9 11 11 11 12 11 12 12 11 9 7 9 11 8 6 8 10 10 8 11 12 10 10 10 8 4 4 3 -3 1 5 3 5 6 8 16 14 11 10 11 19 16 9 14 10 8 11 12 21 19 8 10 9 4
9 9 9 9 10 11 12 12 12 12 12 11 11 11 11 11 11 11 12 12 11 10 10 9 8 7 8 8 8 11 8 5 9 11 9 10 10 9 10 10 10 11 12 12 9 10 11 9 6 6 8 9 8 9 10 7 5 9 11 7 5 6 3 3 8 6 3 1 2 7 8 12 11 8 13 10 8 16 12 9 10 10 18 18 13 13 7 4
9 10 10 11 12 12 13 13 12 11 11 11 11 11 11 11 12 12 12 12 12 11 10 10 10 9 8 8 8 10 9 6 8 11 8 8 10 9 9 10 11 11 11 11 11 11 11 9 11 9 7 9 10 9 9 8 4 3 8 13 12 9 5 3 4 8 11 9 10 11 7 8 10 13 19 15 11 16 15 8 7 11 14 12 11 9 5 5
10 11 11 12 12 12 11 11 10 10 11 12 12 11 12 12 12 13 13 12 12 12 11 10 10 10 9 9 10 12 11 6 7 11 10 8 6 7 8 9 9 12 13 13 13 11 11 9 10 12 10 11 12 9 7 7 6 1 -1 7 12 11 11 10 5 3 6 5 8 12 9 7 10 12 16 18 16 19 18 7 2 9 13 11 11 7 5 5
11 12 11 11 11 11 10 10 10 11 11 12 13 13 13 12 13 13 13 13 12 11 11 10 10 10 9 9 9 11 13 9 4 4 8 9 7 6 8 8 7 8 10 14 14 14 15 12 9 12 14 14 13 10 9 8 9 6 0 -1 3 4 4 9 11 8 8 8 9 11 10 12 17 15 13 15 17 20 21 10 -0 2 5 9 12 11 10 7
12 11 10 10 10 10 11 11 11 12 12 12 13 13 13 13 13 14 14 14 13 12 12 11 10 10 8 8 8 9 12 13 10 4 4 9 10 6 6 6 6 7 6 7 10 13 18 16 9 8 11 15 15 11 8 9 11 11 9 3 3 7 4 -0 3 6 4 5 6 6 8 10 13 13 14 17 17 18 20 14 6 1 0 3 7 11 12 8
12 10 10 10 10 11 11 11 12 12 12 13 13 13 12 12 11 10 10 10 10 10 10 10 10 10 9 8 8 8 9 12 15 9 4 9 12 7 6 5 5 6 6 5 6 8 14 17 12 6 6 11 15 14 9 6 6 8 14 14 6 8 11 5 5 9 4 0 -0 2 5 6 9 12 13 15 15 15 17 16 12 7 4 4 4 7 10 9
11 10 10 10 11 11 11 12 12 12 12 12 12 11 9 8 6 4 6 7 7 8 8 9 9 9 10 9 8 7 6 10 18 16 8 11 15 10 6 7 4 3 6 7 7 7 9 11 10 7 5 2 3 9 10 8 7 1 3 9 6 5 9 7 5 7 8 7 6 6 3 1 6 10 11 13 12 12 15 16 15 13 11 9 6 7 9 10
11 10 10 10 10 11 12 12 12 12 11 10 8 7 5 5 6 5 7 8 8 9 9 10 10 10 10 10 10 9 5 4 11 15 10 10 15 13 7 6 7 5 5 4 5 9 8 6 5 5 5 0 -2 4 7 8 13 8 1 0 -0 1 5 6 3 0 2 5 5 8 11 11 12 10 7 9 9 9 11 14 16 17 19 18 15 14 13 10
10 10 10 10 11 12 12 12 11 10 9 7 7 7 6 7 8 8 8 8 9 9 10 11 12 12 12 12 12 12 8 4 3 7 10 7 9 13 10 7 6 7 7 4 5 10 11 11 10 5 6 6 3 4 6 5 9 11 10 7 3 1 2 5 6 1 2 4 1 3 5 8 14 13 8 9 11 12 11 11 12 12 15 18 18 19 18 17
10 11 11 11 12 12 10 10 9 8 8 8 9 9 9 9 8 9 9 9 10 10 11 13 13 13 14 14 15 15 14 10 5 6 13 12 8 10 12 10 8 7 7 5 6 8 10 18 18 10 8 8 7 9 9 6 7 10 11 9 7 6 3 4 6 4 5 5 5 7 0 -3 5 9 7 7 8 10 11 13 15 12 11 12 11 12 11 16
10 11 12 12 11 9 8 8 8 9 9 9 9 9 9 9 9 10 10 11 13 13 13 15 15 15 15 14 16 18 19 18 10 3 7 12 9 7 10 14 13 12 8 4 7 8 5 11 17 13 10 6 5 12 11 5 6 11 14 12 9 8 6 5 6 4 4 3 2 7 4 1 5 5 3 4 4 6 8 10 15 17 15 11 7 9 6 11
11 12 12 10 9 8 8 9 9 9 9 9 8 8 9 10 10 10 10 11 14 16 16 18 19 17 13 11 11 12 14 18 18 13 11 13 11 8 11 13 11 17 20 12 11 12 7 4 7 12 19 17 9 5 4 9 12 7 7 11 13 11 7 7 8 6 5 3 3 8 9 5 6 6 7 7 4 6 7 5 9 16 18 13 9 11 8 8
11 11 9 8 8 9 8 9 9 7 7 8 7 8 10 11 10 8 9 11 15 18 19 20 23 21 12 6 4 4 5 8 13 16 17 18 15 10 11 10 4 10 20 16 10 11 12 12 7 3 10 23 31 22 4 3 11 10 6 6 9 13 10 8 10 9 7 2 1 6 8 6 5 6 10 9 5 5 5 3 5 9 14 13 11 12 10 8
10 8 8 8 9 9 8 7 7 7 7 7 7 9 11 10 8 7 9 11 14 19 17 15 21 24 18 9 2 1 4 5 5 7 10 15 17 14 12 11 7 4 7 12 16 14 11 12 10 3 -0 7 29 46 34 10 2 6 10 9 8 11 12 10 8 8 8 5 2 1 2 4 6 5 6 8 8 8 7 7 6 6 9 10 8 9 9 11
8 7 10 10 8 8 8 7 7 7 7 6 8 11 11 8 5 5 8 10 14 19 18 13 13 16 18 16 10 8 9 8 9 9 9 11 14 16 15 12 11 9 -1 -4 8 16 12 10 9 6 4 -1 1 19 37 36 22 9 3 6 9 9 10 11 10 7 6 6 7 7 6 8 8 4 4 7 8 8 10 10 8 6 6 6 6 7 6 10
9 9 9 8 7 7 7 7 8 7 7 8 10 11 9 6 4 5 8 10 14 20 21 17 11 10 14 15 13 12 11 10 11 12 12 11 10 15 18 12 10 14 6 -8 -2 10 10 11 17 15 9 9 3 -5 3 23 37 33 15 3 4 6 8 9 10 10 9 7 6 6 5 6 7 6 11 16 13 9 9 8 6 5 5 4 5 6 3 6
10 9 7 6 8 8 7 8 9 8 9 10 11 11 9 6 4 6 9 11 14 21 24 21 14 10 12 12 9 9 10 15 20 21 19 16 11 12 17 13 6 9 15 6 -0 11 16 8 12 21 15 10 13 9 0 3 19 36 36 19 6 5 7 9 9 9 8 8 8 6 4 5 6 6 11 15 12 9 10 9 7 7 7 6 7 5 2 5
Height
5749 5750 5751 5752 5754 5755 5756 5757 5759 5760 5761 5762 5763 5764 5765 5767 5768 5769 5770 5772 5773 5774 5775 5777 5778 5779 5780 5782 5783 5784 5785 5787 5788 5790 5791 5793 5794 5795 5796 5797 5799 5800 5801 5802 5803 5803 5804 5805 5805 5806 5807 5807 5808 5808 5808 5809 5809 5809 5809 5809 5810 5810 5810 5810 5811 5811 5811 5811 5812 5813 5813 5813 5814 5815 5815 5816 5817 5818 5819 5819 5820 5820 5821 5822 5823 5824 5824 5824
5745 5746 5747 5748 5750 5751 5752 5753 5754 5756 5757 5758 5760 5761 5762 5763 5764 5765 5767 5768 5769 5770 5772 5773 5775 5776 5777 5778 5779 5781 5782 5783 5785 5786 5788 5790 5791 5792 5793 5795 5796 5797 5798 5799 5800 5801 5801 5802 5802 5803 5804 5804 5805 5805 5805 5805 5805 5805 5806 5806 5806 5807 5807 5807 5808 5808 5808 5808 5809 5810 5810 5810 5811 5812 5813 5814 5815 5815 5816 5816 5817 5817 5818 5819 5819 5820 5820 5821
5741 5742 5743 5744 5746 5747 5748 5749 5751 5752 5753 5755 5756 5757 5758 5759 5761 5762 5763 5764 5766 5767 5768 5770 5772 5773 5774 5775 5776 5778 5779 5780 5782 5783 5785 5787 5788 5789 5790 5792 5793 5794 5795 5796 5797 5798 5798 5799 5800 5800 5801 5801 5801 5802 5802 5802 5802 5802 5803 5803 5803 5804 5804 5805 5805 5806 5806 5806 5806 5807 5808 5808 5808 5809 5810 5811 5812 5813 5814 5814 5813 5814 5815 5816 5816 5817 5818 5819
5737 5739 5740 5741 5742 5743 5744 5746 5747 5749 5750 5751 5752 5754 5755 5756 5757 5758 5760 5761 5762 5764 5765 5767 5769 5770 5771 5772 5773 5775 5776 5777 5779 5780 5782 5783 5784 5786 5787 5789 5790 5791 5792 5793 5794 5795 5796 5796 5797 5797 5798 5798 5798 5799 5799 5799 5799 5799 5800 5800 5801 5801 5801 5802 5803 5803 5803 5803 5804 5805 5805 5805 5805 5806 5807 5809 5809 5810 5811 5811 5810 5811 5812 5813 5814 5816 5817 5818
5734 5735 5736 5737 5738 5740 5741 5742 5744 5745 5746 5748 5749 5750 5752 5753 5754 5755 5756 5758 5759 5760 5762 5764 5766 5767 5768 5770 5771 5772 5773 5774 5776 5777 5779 5780 5781 5782 5784 5785 5786 5787 5789 5790 5791 5792 5793 5794 5794 5794 5795 5795 5796 5796 5796 5797 5797 5796 5797 5797 5798 5799 5799 5799 5800 5800 5801 5801 5801 5802 5802 5802 5803 5803 5804 5805 5806 5806 5808 5808 5808 5809 5811 5812 5813 5814 5816 5817
5730 5731 5733 5734 5735 5736 5738 5739 5741 5742 5743 5744 5746 5747 5748 5750 5751 5752 5753 5755 5756 5757 5759 5761 5762 5764 5765 5767 5768 5769 5770 5771 5773 5774 5776 5777 5778 5779 5781 5782 5784 5784 5786 5787 5788 5789 5790 5791 5791 5792 5792 5793 5793 5793 5794 5794 5794 5794 5794 5795 5795 5796 5796 5797 5797 5798 5798 5798 5799 5799 5799 5800 5800 5801 5801 5803 5803 5804 5805 5806 5806 5808 5809 5810 5811 5812 5814 5815
5726 5728 5729 5730 5732 5733 5735 5736 5737 5738 5740 5741 5742 5744 5745 5746 5747 5749 5750 5752 5753 5754 5756 5758 5759 5761 5762 5764 5765 5766 5767 5768 5770 5771 5772 5774 5775 5777 5778 5779 5781 5782 5783 5784 5785 5786 5787 5788 5788 5789 5790 5790 5791 5791 5791 5791 5791 5791 5792 5792 5792 5793 5793 5794 5795 5796 5796 5796 5796 5796 5796 5797 5797 5798 5799 5800 5801 5802 5803 5803 5804 5806 5807 5808 5809 5810 5812 5813
5723 5724 5725 5727 5728 5730 5731 5733 5734 5735 5737 5738 5739 5741 5742 5743 5744 5745 5747 5748 5750 5751 5753 5755 5756 5758 5759 5760 5762 5763 5764 5766 5767 5768 5769 5771 5772 5774 5775 5776 5778 5779 5780 5781 5782 5783 5784 5785 5786 5786 5787 5787 5788 5788 5788 5788 5788 5789 5789 5789 5790 5790 5791 5791 5792 5793 5793 5793 5793 5793 5793 5794 5794 5795 5796 5798 5799 5800 5801 5801 5803 5804 5805 5806 5808 5808 5810 5812
5719 5720 5722 5723 5725 5726 5728 5729 5730 5732 5734 5735 5736 5737 5738 5739 5740 5742 5743 5745 5746 5748 5749 5751 5753 5754 5756 5757 5758 5759 5761 5763 5764 5765 5766 5768 5769 5771 5772 5773 5774 5775 5776 5778 5779 5780 5781 5782 5783 5783 5784 5785 5785 5785 5786 5786 5785 5786 5786 5787 5787 5787 5788 5788 5789 5789 5790 5790 5790 5791 5791 5791 5791 5793 5794 5796 5797 5797 5798 5799 5801 5802 5803 5804 5806 5807 5808 5810
5715 5717 5718 5720 5721 5723 5724 5725 5727 5729 5730 5732 5733 5734 5735 5736 5737 5738 5740 5741 5743 5744 5746 5748 5749 5751 5752 5754 5755 5756 5758 5760 5761 5762 5763 5765 5766 5767 5769 5770 5771 5773 5773 5775 5776 5777 5778 5779 5779 5780 5781 5782 5782 5783 5783 5783 5783 5783 5783 5784 5784 5784 5785 5786 5786 5787 5788 5788 5788 5788 5788 5788 5789 5791 5792 5793 5794 5795 5796 5797 5798 5799 5801 5802 5804 5805 5806 5808
5712 5713 5715 5716 5718 5719 5720 5721 5723 5725 5727 5728 5729 5730 5731 5732 5733 5735 5736 5738 5739 5741 5742 5744 5746 5747 5749 5750 5751 5753 5755 5756 5757 5759 5760 5761 5763 5764 5765 5767 5768 5769 5770 5772 5772 5773 5775 5775 5776 5777 5778 5779 5780 5780 5780 5780 5780 5781 5781 5781 5781 5782 5782 5783 5783 5784 5785 5785 5786 5786 5785 5785 5787 5788 5790 5790 5791 5793 5794 5795 5796 5797 5799 5800 5802 5803 5804 5805
5708 5710 5711 5713 5714 5715 5717 5718 5719 5721 5723 5724 5725 5727 5728 5729 5730 5731 5733 5734 5736 5737 5739 5740 5742 5743 5745 5746 5748 5750 5751 5752 5754 5755 5757 5758 5759 5761 5762 5763 5765 5766 5767 5768 5769 5770 5771 5772 5773 5774 5775 5776 5776 5777 5777 5777 5778 5778 5778 5778 5779 5779 5779 5780 5781 5781 5782 5783 5783 5783 5783 5784 5785 5786 5786 5787 5788 5790 5792 5793 5794 5795 5796 5798 5799 5800 5802 5803
5704 5706 5708 5709 5711 5712 5713 5715 5716 5718 5719 5720 5721 5723 5724 5725 5726 5728 5729 5731 5732 5734 5736 5737 5738 5740 5741 5743 5744 5746 5748 5749 5750 5752 5753 5754 5756 5757 5758 5760 5761 5762 5763 5765 5765 5767 5768 5769 5770 5771 5772 5772 5773 5774 5774 5774 5774 5775 5775 5776 5776 5776 5776 5777 5778 5779 5780 5780 5780 5781 5782 5783 5782 5782 5783 5784 5786 5787 5789 5791 5792 5793 5794 5795 5797 5798 5799 5801
5700 5702 5704 5705 5707 5708 5710 5711 5713 5714 5715 5716 5717 5719 5720 5721 5723 5724 5725 5727 5729 5731 5732 5734 5735 5737 5738 5739 5741 5743 5744 5746 5747 5748 5750 5751 5752 5753 5755 5756 5757 5759 5760 5761 5762 5763 5764 5765 5766 5767 5768 5769 5770 5771 5771 5771 5771 5772 5772 5773 5774 5774 5774 5775 5776 5777 5777 5777 5778 5778 5780 5781 5778 5777 5780 5782 5783 5785 5786 5788 5789 5791 5792 5793 5794 5796 5797 5799
5696 5698 5700 5702 5703 5705 5706 5708 5709 5710 5711 5712 5713 5715 5716 5717 5719 5720 5721 5723 5725 5727 5729 5730 5732 5733 5735 5735 5737 5739 5741 5742 5743 5745 5746 5747 5748 5749 5751 5752 5754 5755 5757 5757 5758 5759 5760 5761 5762 5763 5764 5765 5766 5767 5767 5768 5768 5769 5769 5770 5771 5771 5771 5773 5774 5774 5774 5775 5775 5775 5777 5779 5775 5774 5778 5780 5781 5783 5784 5786 5787 5789 5790 5791 5792 5794 5795 5797
5692 5694 5696 5698 5699 5701 5702 5704 5705 5706 5707 5708 5709 5710 5712 5713 5714 5716 5717 5719 5721 5723 5725 5726 5728 5730 5731 5732 5733 5735 5738 5738 5740 5741 5742 5743 5744 5746 5747 5748 5750 5751 5753 5754 5754 5755 5756 5757 5759 5760 5761 5762 5763 5763 5764 5765 5765 5766 5767 5767 5768 5769 5769 5770 5770 5771 5772 5772 5773 5773 5774 5774 5772 5773 5776 5778 5779 5781 5782 5783 5785 5786 5787 5789 5790 5792 5793 5795
5688 5690 5692 5694 5695 5697 5698 5700 5701 5702 5703 5704 5705 5707 5708 5709 5710 5711 5713 5714 5716 5718 5721 5722 5724 5726 5728 5729 5729 5731 5734 5735 5736 5737 5738 5740 5741 5742 5743 5745 5746 5748 5749 5750 5751 5752 5753 5754 5755 5756 5757 5758 5759 5760 5761 5761 5763 5763 5763 5764 5765 5766 5767 5767 5767 5768 5769 5769 5770 5770 5771 5771 5771 5772 5773 5775 5776 5778 5779 5781 5782 5784 5785 5786 5788 5790 5791 5793
5684 5686 5688 5690 5692 5693 5695 5696 5697 5698 5699 5700 5701 5703 5704 5705 5706 5707 5708 5710 5712 5714 5716 5718 5720 5722 5723 5725 5726 5727 5729 5731 5733 5733 5735 5736 5738 5739 5740 5742 5743 5744 5745 5747 5748 5749 5749 5750 5751 5751 5753 5755 5756 5757 5758 5758 5759 5759 5760 5762 5762 5763 5764 5764 5764 5765 5766 5766 5766 5767 5768 5769 5770 5770 5770 5772 5773 5775 5776 5778 5779 5781 5783 5784 5786 5788 5789 5790
5680 5682 5684 5686 5688 5689 5691 5692 5693 5694 5695 5697 5698 5699 5701 5702 5703 5704 5705 5706 5708 5710 5712 5715 5717 5718 5719 5721 5722 5723 5725 5727 5729 5731 5732 5733 5734 5736 5737 5738 5740 5741 5742 5743 5744 5745 5746 5746 5747 5748 5750 5752 5753 5754 5754 5754 5755 5756 5757 5759 5759 5760 5761 5761 5761 5761 5762 5763 5763 5765 5765 5766 5768 5768 5768 5769 5770 5772 5773 5774 5776 5778 5781 5782 5784 5785 5786 5787
5676 5678 5680 5682 5684 5686 5687 5688 5689 5690 5692 5693 5694 5695 5697 5698 5699 5700 5702 5703 5705 5706 5709 5711 5713 5714 5716 5718 5719 5720 5721 5723 5725 5728 5729 5730 5731 5732 5734 5735 5737 5738 5739 5739 5740 5741 5742 5742 5743 5746 5747 5748 5749 5749 5750 5750 5752 5754 5755 5756 5756 5757 5757 5757 5758 5758 5759 5760 5761 5761 5762 5762 5765 5767 5766 5765 5767 5769 5770 5771 5774 5776 5778 5780 5781 5782 5783 5784
5673 5675 5677 5679 5681 5682 5684 5685 5686 5687 5688 5689 5691 5692 5693 5695 5696 5697 5699 5700 5701 5703 5706 5708 5709 5711 5712 5713 5715 5717 5718 5720 5722 5725 5727 5728 5728 5729 5730 5732 5733 5734 5735 5735 5736 5738 5738 5739 5741 5743 5743 5744 5744 5745 5746 5747 5749 5750 5752 5753 5754 5755 5754 5754 5755 5755 5756 5757 5758 5758 5758 5759 5762 5765 5764 5762 5764 5767 5768 5768 5770 5773 5775 5777 5778 5779 5780 5781
5669 5671 5673 5675 5677 5679 5680 5681 5682 5683 5684 5685 5687 5688 5690 5691 5693 5695 5696 5697 5698 5700 5702 5704 5706 5707 5708 5710 5712 5714 5716 5718 5720 5721 5723 5724 5725 5726 5727 5729 5730 5731 5731 5732 5733 5734 5735 5736 5738 5738 5739 5739 5740 5742 5743 5745 5746 5747 5748 5749 5751 5751 5751 5751 5751 5752 5753 5754 5755 5755 5755 5756 5758 5762 5762 5759 5761 5764 5765 5766 5767 5770 5772 5774 5775 5776 5777 5777
5666 5668 5670 5672 5674 5675 5677 5677 5678 5679 5680 5682 5684 5685 5686 5688 5690 5692 5693 5694 5695 5697 5699 5701 5703 5704 5705 5707 5709 5711 5713 5714 5716 5717 5719 5720 5721 5723 5724 5725 5726 5727 5727 5728 5730 5731 5732 5733 5734 5734 5735 5736 5737 5739 5740 5741 5742 5744 5745 5746 5747 5748 5748 5749 5748 5749 5750 5750 5752 5752 5752 5753 5756 5758 5759 5758 5759 5761 5762 5764 5765 5767 5768 5770 5772 5773 5773 5774
5662 5664 5666 5668 5670 5672 5673 5674 5675 5676 5677 5679 5680 5682 5683 5685 5687 5689 5690 5692 5692 5693 5696 5698 5699 5701 5702 5704 5706 5708 5709 5710 5712 5713 5715 5716 5718 5719 5720 5722 5722 5723 5724 5725 5726 5727 5728 5729 5730 5731 5732 5733 5734 5735 5737 5738 5739 5740 5741 5742 5744 5744 5745 5746 5745 5745 5747 5747 5749 5750 5749 5751 5753 5755 5756 5755 5756 5758 5759 5761 5763 5764 5765 5767 5767 5768 5770 5772
5658 5661 5663 5664 5666 5668 5670 5671 5671 5672 5674 5676 5677 5679 5680 5682 5684 5686 5687 5689 5689 5689 5693 5695 5696 5697 5699 5700 5702 5704 5706 5707 5708 5709 5711 5712 5714 5716 5717 5718 5718 5719 5721 5722 5723 5724 5724 5726 5728 5728 5729 5730 5731 5732 5734 5735 5736 5736 5737 5739 5740 5741 5742 5743 5742 5743 5745 5745 5746 5747 5748 5749 5751 5752 5753 5753 5754 5756 5757 5758 5759 5760 5762 5763 5764 5766 5768 5769
5655 5657 5659 5661 5662 5664 5666 5667 5668 5669 5671 5672 5674 5675 5677 5679 5681 5683 5684 5686 5686 5686 5688 5691 5693 5694 5695 5697 5698 5701 5702 5703 5704 5706 5708 5709 5711 5712 5713 5714 5715 5716 5718 5719 5719 5720 5721 5723 5724 5724 5725 5726 5727 5729 5731 5732 5733 5733 5734 5735 5737 5738 5739 5740 5740 5741 5743 5743 5742 5744 5746 5747 5748 5749 5750 5751 5751 5753 5754 5755 5756 5757 5759 5760 5762 5763 5765 5765
5652 5654 5655 5657 5659 5661 5662 5663 5665 5666 5668 5669 5671 5672 5674 5676 5678 5679 5681 5683 5684 5684 5685 5687 5689 5691 5693 5694 5695 5697 5698 5700 5701 5703 5705 5706 5707 5708 5709 5710 5712 5713 5714 5715 5716 5716 5718 5719 5720 5721 5722 5723 5724 5726 5728 5729 5730 5729 5731 5732 5733 5734 5735 5737 5738 5739 5740 5740 5740 5742 5744 5744 5746 5747 5746 5747 5749 5749 5750 5752 5753 5754 5756 5757 5759 5760 5761 5761
5649 5650 5652 5654 5655 5657 5659 5660 5662 5663 5664 5666 5668 5669 5671 5673 5674 5676 5678 5679 5680 5681 5682 5683 5685 5687 5689 5691 5692 5693 5694 5696 5698 5699 5701 5702 5703 5704 5705 5707 5709 5710 5710 5711 5712 5713 5715 5715 5716 5717 5718 5719 5721 5723 5724 5725 5726 5726 5727 5729 5729 5731 5733 5734 5736 5737 5737 5738 5739 5740 5740 5741 5743 5745 5744 5744 5746 5746 5746 5749 5751 5752 5753 5754 5756 5757 5757 5757
5645 5647 5649 5650 5652 5653 5655 5657 5659 5660 5661 5663 5664 5666 5668 5670 5671 5673 5675 5676 5677 5678 5679 5680 5681 5683 5685 5687 5689 5690 5691 5692 5694 5696 5698 5699 5700 5701 5702 5704 5705 5706 5706 5708 5708 5709 5710 5712 5713 5714 5715 5717 5719 5720 5720 5721 5722 5723 5724 5725 5727 5729 5731 5733 5734 5735 5735 5736 5738 5738 5737 5738 5740 5742 5742 5742 5743 5742 5742 5746 5748 5749 5751 5751 5753 5754 5754 5754
5642 5644 5646 5647 5648 5650 5652 5654 5656 5657 5658 5660 5662 5663 5665 5666 5668 5670 5671 5673 5674 5675 5676 5677 5678 5679 5681 5683 5685 5687 5688 5689 5691 5693 5694 5695 5697 5698 5699 5701 5701 5702 5703 5704 5705 5705 5708 5709 5710 5711 5713 5715 5717 5717 5717 5718 5719 5721 5722 5724 5726 5728 5730 5731 5732 5733 5733 5734 5736 5735 5734 5735 5737 5739 5739 5738 5739 5740 5741 5743 5745 5747 5748 5748 5750 5750 5751 5751
5639 5641 5643 5644 5646 5648 5650 5651 5653 5654 5655 5657 5659 5660 5662 5663 5665 5666 5668 5670 5671 5672 5673 5673 5674 5676 5678 5680 5682 5683 5685 5686 5687 5689 5690 5691 5693 5694 5696 5697 5698 5699 5700 5701 5702 5703 5706 5707 5707 5709 5711 5713 5714 5715 5715 5716 5717 5719 5721 5722 5724 5726 5727 5729 5729 5730 5731 5732 5732 5732 5732 5732 5734 5736 5735 5735 5737 5738 5740 5742 5743 5744 5745 5746 5747 5748 5748 5749
5636 5638 5640 5641 5643 5645 5647 5648 5650 5651 5653 5654 5656 5657 5659 5660 5662 5663 5665 5666 5667 5668 5669 5671 5672 5673 5675 5677 5678 5680 5681 5682 5684 5685 5686 5688 5689 5691 5693 5694 5695 5697 5697 5699 5700 5702 5703 5704 5705 5706 5708 5710 5712 5713 5713 5714 5716 5718 5719 5721 5723 5724 5724 5726 5726 5727 5729 5730 5728 5729 5730 5730 5732 5733 5732 5734 5736 5737 5739 5740 5741 5742 5743 5744 5745 5745 5746 5748
5634 5635 5637 5639 5641 5643 5644 5646 5647 5648 5650 5651 5653 5654 5656 5657 5659 5661 5662 5662 5663 5665 5666 5668 5669 5670 5672 5673 5675 5676 5678 5679 5680 5681 5683 5685 5686 5688 5690 5691 5692 5694 5695 5696 5698 5700 5701 5701 5703 5703 5705 5707 5709 5710 5712 5714 5715 5716 5718 5719 5721 5722 5721 5723 5725 5725 5727 5727 5726 5727 5727 5727 5729 5729 5730 5732 5733 5735 5737 5738 5739 5740 5741 5742 5743 5744 5745 5747
5631 5633 5635 5637 5639 5640 5642 5643 5645 5646 5647 5649 5650 5651 5653 5654 5656 5657 5658 5659 5660 5662 5663 5665 5666 5667 5668 5670 5671 5673 5675 5676 5677 5678 5680 5681 5683 5685 5687 5688 5690 5691 5692 5693 5695 5697 5698 5699 5700 5701 5702 5705 5707 5708 5710 5711 5712 5713 5715 5716 5717 5719 5719 5721 5723 5723 5724 5724 5723 5724 5725 5725 5726 5726 5728 5730 5730 5732 5734 5735 5737 5738 5739 5740 5741 5742 5744 5745
5629 5631 5633 5635 5636 5638 5639 5641 5642 5643 5645 5646 5647 5649 5650 5651 5653 5654 5655 5656 5658 5659 5660 5662 5663 5664 5665 5667 5669 5670 5672 5674 5674 5675 5677 5678 5680 5682 5683 5685 5687 5688 5689 5691 5693 5694 5696 5697 5698 5699 5700 5703 5704 5706 5707 5708 5709 5710 5711 5712 5714 5716 5718 5719 5720 5720 5722 5722 5721 5722 5723 5723 5723 5724 5726 5727 5728 5730 5731 5733 5735 5736 5737 5738 5739 5740 5741 5743
5627 5629 5631 5632 5634 5635 5637 5638 5639 5641 5642 5643 5644 5646 5647 5648 5650 5651 5652 5654 5655 5656 5657 5658 5659 5661 5662 5663 5666 5667 5669 5671 5672 5673 5674 5676 5677 5679 5680 5682 5683 5685 5687 5689 5691 5692 5694 5695 5695 5696 5699 5700 5701 5703 5704 5705 5707 5708 5709 5710 5713 5716 5716 5716 5717 5718 5720 5720 5719 5720 5721 5721 5721 5722 5723 5724 5726 5728 5729 5730 5732 5733 5735 5736 5737 5738 5739 5740
5626 5627 5629 5630 5632 5633 5634 5635 5637 5638 5639 5641 5642 5643 5644 5645 5647 5649 5650 5651 5652 5653 5654 5655 5656 5658 5659 5660 5663 5665 5666 5668 5670 5671 5672 5674 5675 5676 5677 5679 5681 5682 5684 5686 5688 5689 5691 5692 5693 5694 5696 5697 5699 5700 5701 5702 5704 5705 5707 5708 5711 5713 5713 5714 5716 5716 5717 5718 5718 5718 5719 5719 5719 5719 5720 5722 5723 5725 5726 5728 5729 5730 5731 5733 5735 5736 5737 5738
5624 5625 5627 5628 5629 5631 5632 5633 5634 5636 5637 5638 5639 5640 5642 5643 5644 5646 5647 5648 5649 5650 5651 5652 5654 5655 5656 5657 5659 5662 5664 5665 5667 5669 5670 5671 5672 5673 5675 5676 5678 5679 5681 5683 5685 5686 5688 5690 5690 5691 5693 5695 5696 5698 5699 5699 5701 5703 5705 5706 5708 5709 5710 5712 5713 5714 5715 5716 5716 5716 5717 5717 5716 5716 5718 5720 5720 5722 5724 5725 5726 5727 5728 5730 5731 5733 5734 5736
5622 5623 5624 5626 5627 5628 5630 5631 5632 5634 5635 5636 5637 5638 5639 5640 5642 5643 5644 5646 5647 5648 5648 5650 5651 5652 5653 5654 5655 5658 5661 5661 5663 5666 5667 5668 5670 5671 5672 5673 5675 5676 5678 5680 5682 5683 5686 5688 5688 5689 5690 5692 5694 5696 5697 5698 5699 5701 5702 5704 5706 5706 5708 5709 5710 5712 5713 5714 5714 5715 5715 5715 5714 5714 5716 5717 5718 5720 5721 5723 5724 5724 5725 5727 5728 5730 5732 5734
5620 5621 5623 5624 5625 5627 5628 5629 5630 5632 5633 5634 5635 5636 5637 5638 5639 5641 5642 5643 5644 5645 5646 5647 5648 5650 5651 5651 5652 5654 5657 5658 5660 5663 5664 5665 5667 5668 5669 5671 5672 5674 5676 5678 5679 5681 5683 5685 5686 5686 5688 5690 5692 5693 5695 5696 5697 5699 5700 5702 5703 5704 5706 5707 5708 5710 5711 5712 5713 5713 5713 5713 5712 5713 5714 5715 5717 5718 5719 5721 5722 5722 5724 5724 5726 5728 5730 5731
5618 5619 5621 5622 5624 5625 5626 5627 5629 5630 5631 5632 5633 5634 5635 5636 5638 5639 5640 5641 5642 5643 5644 5645 5646 5647 5648 5649 5649 5650 5653 5656 5658 5660 5661 5662 5663 5664 5666 5668 5670 5672 5674 5675 5676 5678 5680 5682 5684 5685 5686 5688 5689 5690 5692 5693 5694 5696 5697 5699 5701 5702 5703 5704 5705 5707 5708 5709 5710 5710 5711 5711 5711 5712 5713 5714 5715 5716 5717 5718 5719 5720 5722 5723 5724 5726 5727 5728
5616 5618 5619 5621 5622 5623 5625 5626 5627 5628 5629 5630 5631 5632 5633 5634 5636 5637 5638 5639 5640 5640 5641 5642 5643 5644 5645 5646 5647 5647 5649 5652 5655 5657 5658 5659 5659 5660 5663 5665 5667 5670 5671 5672 5674 5676 5678 5680 5682 5682 5684 5685 5685 5687 5689 5690 5691 5693 5694 5696 5698 5699 5700 5701 5703 5704 5705 5706 5707 5707 5708 5708 5709 5711 5711 5712 5714 5715 5715 5717 5717 5718 5720 5721 5722 5723 5724 5724
5615 5616 5618 5619 5621 5622 5623 5624 5625 5626 5627 5628 5629 5630 5631 5633 5634 5635 5636 5636 5637 5638 5638 5639 5640 5641 5642 5643 5644 5645 5646 5649 5651 5653 5654 5654 5655 5657 5660 5662 5664 5666 5668 5669 5671 5673 5675 5677 5679 5680 5681 5682 5683 5685 5686 5687 5689 5690 5691 5693 5695 5696 5697 5699 5700 5701 5702 5703 5704 5704 5705 5705 5707 5709 5709 5710 5712 5713 5714 5715 5715 5717 5718 5719 5719 5719 5720 5720
5613 5615 5616 5618 5619 5620 5622 5623 5624 5625 5626 5627 5628 5629 5630 5631 5632 5633 5633 5634 5634 5635 5635 5636 5637 5638 5638 5639 5641 5642 5643 5645 5647 5649 5650 5650 5652 5654 5656 5658 5660 5662 5664 5665 5667 5670 5671 5673 5676 5678 5678 5679 5680 5681 5682 5684 5685 5686 5688 5690 5692 5693 5695 5697 5697 5698 5699 5700 5701 5703 5703 5703 5704 5706 5707 5709 5710 5711 5712 5712 5713 5714 5715 5715 5716 5716 5716 5716
5612 5614 5615 5616 5618 5619 5620 5621 5623 5624 5625 5626 5626 5627 5628 5629 5629 5630 5631 5632 5632 5632 5632 5633 5634 5635 5635 5636 5637 5638 5640 5642 5644 5646 5646 5647 5649 5651 5653 5655 5657 5659 5661 5663 5665 5667 5668 5670 5672 5674 5675 5676 5676 5677 5678 5680 5682 5683 5685 5687 5689 5691 5693 5694 5695 5696 5696 5697 5698 5700 5700 5701 5702 5704 5705 5707 5707 5709 5710 5710 5711 5712 5712 5712 5713 5713 5713 5713
5611 5612 5614 5615 5616 5618 5619 5620 5621 5622 5623 5624 5625 5625 5626 5627 5627 5628 5628 5629 5629 5629 5629 5629 5630 5631 5632 5633 5634 5635 5637 5638 5640 5642 5643 5643 5645 5647 5649 5652 5654 5656 5658 5660 5662 5664 5665 5666 5668 5670 5671 5671 5672 5673 5674 5677 5678 5680 5682 5684 5686 5688 5690 5692 5692 5693 5694 5695 5696 5696 5697 5699 5700 5702 5703 5705 5705 5706 5707 5708 5709 5709 5709 5710 5710 5711 5711 5712
5610 5611 5613 5614 5615 5617 5618 5619 5620 5621 5622 5623 5623 5624 5624 5625 5625 5625 5626 5626 5626 5626 5626 5626 5626 5627 5628 5630 5631 5633 5634 5635 5636 5638 5639 5640 5642 5644 5646 5648 5651 5654 5655 5657 5658 5660 5662 5663 5665 5666 5667 5668 5668 5670 5672 5674 5675 5677 5679 5681 5683 5685 5687 5688 5689 5690 5691 5692 5693 5694 5695 5696 5698 5699 5701 5702 5703 5704 5705 5706 5707 5707 5707 5707 5708 5708 5708 5709
5609 5610 5612 5613 5614 5616 5617 5618 5619 5620 5620 5621 5622 5622 5622 5623 5623 5623 5623 5623 5623 5623 5623 5623 5623 5624 5625 5627 5629 5630 5631 5632 5633 5634 5635 5636 5638 5640 5642 5645 5648 5650 5652 5654 5655 5657 5659 5660 5661 5663 5664 5665 5666 5667 5669 5671 5672 5674 5676 5677 5679 5681 5683 5685 5686 5687 5688 5689 5690 5691 5692 5694 5695 5697 5699 5700 5701 5702 5703 5704 5705 5705 5705 5705 5705 5705 5706 5706
5608 5609 5611 5612 5613 5615 5616 5617 5617 5618 5619 5619 5620 5620 5620 5621 5621 5620 5620 5620 5620 5620 5620 5620 5620 5621 5622 5624 5625 5627 5628 5629 5630 5631 5632 5633 5635 5637 5639 5641 5644 5647 5649 5651 5652 5654 5656 5657 5658 5659 5660 5662 5663 5663 5665 5668 5669 5671 5672 5674 5676 5678 5680 5681 5683 5684 5685 5686 5687 5688 5690 5691 5693 5695 5696 5697 5698 5699 5700 5701 5702 5703 5703 5703 5704 5704 5704 5704
5607 5609 5610 5611 5613 5614 5615 5615 5616 5617 5617 5618 5618 5618 5619 5619 5618 5618 5618 5617 5617 5617 5617 5617 5618 5619 5619 5621 5622 5623 5624 5625 5626 5628 5629 5630 5632 5633 5635 5638 5640 5643 5645 5647 5649 5651 5652 5653 5655 5656 5657 5659 5661 5661 5662 5664 5666 5667 5669 5671 5673 5675 5676 5678 5679 5681 5682 5683 5685 5686 5687 5689 5691 5692 5693 5695 5696 5697 5698 5699 5700 5701 5701 5701 5702 5702 5702 5702
5606 5608 5609 5611 5612 5613 5613 5614 5615 5616 5616 5616 5617 5617 5617 5617 5616 5616 5615 5615 5614 5614 5614 5614 5615 5616 5617 5618 5619 5620 5621 5622 5623 5624 5625 5627 5628 5630 5632 5634 5636 5639 5641 5643 5646 5647 5648 5650 5652 5653 5654 5656 5658 5659 5660 5661 5662 5664 5666 5667 5669 5671 5673 5674 5676 5677 5679 5681 5682 5683 5684 5686 5688 5689 5690 5691 5693 5694 5695 5696 5697 5698 5699 5699 5699 5700 5700 5700
5606 5607 5608 5610 5611 5612 5612 5613 5614 5614 5615 5615 5615 5615 5615 5615 5615 5614 5613 5613 5612 5611 5611 5611 5612 5613 5614 5615 5615 5616 5617 5618 5619 5620 5621 5623 5625 5627 5628 5630 5632 5634 5637 5640 5643 5644 5646 5648 5650 5651 5652 5654 5655 5656 5658 5659 5660 5660 5662 5664 5666 5667 5669 5670 5672 5674 5676 5677 5678 5680 5681 5683 5685 5686 5687 5688 5689 5691 5692 5693 5694 5695 5696 5696 5697 5697 5698 5698